{"data":{"norad_id":44186,"intl_designator":"2019-021A","name":"ARABSAT-6A","alt_names":[],"object_type":"PAYLOAD","status":"ACTIVE","operator":null,"country":"AB","launch_date":"2019-04-11","launch_site_code":"AFETR","launch_vehicle":null,"mission":null,"orbit_class":"UNKNOWN","rcs_meters":null,"size_class":null,"mass_kg":null,"dimensions":null,"purposes":["comms"],"wikipedia_slug":null,"has_3d_model":false,"image_url":null,"decayed_at":null,"tle_current":{"epoch":"2026-09-20T03:22:49.774368Z","epoch_age_seconds":53024,"freshness":"FRESH","line1":"1 44186U 19021A   26263.14085387  .00000000  00000+0  00000+0 0  9999","line2":"2 44186   0.0190  15.4922 0004649 241.5362 183.2380  1.00274330 27109","mean_motion":1.0027433,"eccentricity":0.0004649,"inclination_deg":0.019,"raan_deg":15.4922,"arg_perigee_deg":241.5362,"mean_anomaly_deg":183.238,"bstar":0,"rev_number":2710,"period_min":1436.0604553528,"perigee_km":35766.279468184,"apogee_km":35805.483572604,"semimajor_km":42164.018520394,"source":"CELESTRAK","updated_at":"2026-09-20T09:00:35.266618Z"}}}